Zurück zum Katalog

STARLINK-36264

AktivKommunikationSSO
NORAD 68307·PAYLOAD·🇺🇸 United States

Gestartet Mar 20, 2026 von Vandenberg Space Force Base

Loading…

Nächste Überflüge (nächste 24 Stunden)

TLE

AktuellSource: CelesTrak SupGP

Epoche: Sep 15, 2026, 03:35 UTC

1 68307C 26057P   26258.14979167  .00017995  00000+0  55871-3 0  2588
2 68307  97.2852  23.6642 0001188  79.2101  10.4480 15.33424287    17

Verfolge STARLINK-36264 in Echtzeit mit AllMySat

Download on the App Store